AYN7141 UAUU-UAAA

Flight info

Callsign AYN7141
Flight time N/A
Altitude 37000
Route DOKUT3E DOKUT L998 TULPI W333 ETEDA ETEDA1R
Aircraft A20N/M-SDE2E3FGHIRWXY/LB1

Departure

Time N/A
Airport Kostanay International Airport (UAUU)

Arrival

Time 2026-05-06 17:30
Airport Almaty International Airport (UAAA)
Time Latitude Longitude Altitude Speed Heading
2026-05-06 17:18 43.92415 76.95767 13962 ft 326 kts 127°
2026-05-06 17:18 43.91008 76.98161 13662 ft 322 kts 136°
2026-05-06 17:18 43.89316 77.00205 13326 ft 319 kts 144°
2026-05-06 17:18 43.87561 77.02012 13017 ft 317 kts 146°
2026-05-06 17:19 43.85780 77.03800 12666 ft 315 kts 146°
2026-05-06 17:19 43.84027 77.05572 12365 ft 312 kts 145°
2026-05-06 17:19 43.82294 77.07339 12046 ft 310 kts 145°
2026-05-06 17:19 43.80547 77.09129 11726 ft 308 kts 145°
2026-05-06 17:20 43.78835 77.10886 11383 ft 306 kts 144°
2026-05-06 17:20 43.77143 77.12624 11067 ft 304 kts 144°
2026-05-06 17:20 43.75447 77.14368 10739 ft 303 kts 144°
2026-05-06 17:20 43.73770 77.16090 10426 ft 301 kts 144°
2026-05-06 17:21 43.72100 77.17802 10112 ft 299 kts 144°
2026-05-06 17:21 43.70443 77.19501 9799 ft 294 kts 144°
2026-05-06 17:21 43.68817 77.21167 9510 ft 288 kts 144°
2026-05-06 17:21 43.67223 77.22799 9248 ft 282 kts 143°
2026-05-06 17:22 43.65667 77.24392 8975 ft 277 kts 143°
2026-05-06 17:22 43.64148 77.25945 8731 ft 271 kts 143°
2026-05-06 17:22 43.62645 77.27481 8463 ft 266 kts 143°
2026-05-06 17:22 43.61179 77.28977 8208 ft 262 kts 143°
2026-05-06 17:23 43.59726 77.30459 7930 ft 257 kts 144°
2026-05-06 17:23 43.58275 77.31853 7670 ft 253 kts 145°
2026-05-06 17:23 43.56822 77.33226 7406 ft 249 kts 145°
2026-05-06 17:23 43.55410 77.34557 7125 ft 247 kts 144°
2026-05-06 17:24 43.53993 77.35857 6836 ft 245 kts 150°
2026-05-06 17:24 43.52354 77.36390 6521 ft 245 kts 187°
2026-05-06 17:24 43.50832 77.35444 6234 ft 244 kts 221°
2026-05-06 17:24 43.49749 77.33698 6067 ft 236 kts 236°
2026-05-06 17:25 43.48907 77.31827 6064 ft 221 kts 238°
2026-05-06 17:25 43.48126 77.30063 6013 ft 213 kts 237°
2026-05-06 17:25 43.47332 77.28352 5803 ft 214 kts 236°
2026-05-06 17:25 43.46498 77.26624 5546 ft 214 kts 235°
2026-05-06 17:26 43.45684 77.24979 5382 ft 205 kts 234°
2026-05-06 17:26 43.44883 77.23377 5108 ft 202 kts 234°
2026-05-06 17:26 43.44091 77.21795 4864 ft 197 kts 234°
2026-05-06 17:26 43.43320 77.20252 4598 ft 192 kts 234°
2026-05-06 17:27 43.42579 77.18770 4331 ft 186 kts 234°
2026-05-06 17:27 43.42103 77.17815 4167 ft 182 kts 234°
2026-05-06 17:27 43.41195 77.15990 3865 ft 162 kts 234°
2026-05-06 17:27 43.40584 77.14761 3647 ft 148 kts 234°
2026-05-06 17:28 43.40026 77.13639 3469 ft 142 kts 233°
2026-05-06 17:28 43.39547 77.12676 3330 ft 141 kts 234°
2026-05-06 17:28 43.38995 77.11566 3160 ft 141 kts 234°
2026-05-06 17:28 43.38443 77.10455 2990 ft 140 kts 234°
2026-05-06 17:29 43.37899 77.09334 2813 ft 140 kts 235°
2026-05-06 17:29 43.37363 77.08218 2608 ft 139 kts 234°
2026-05-06 17:29 43.36817 77.07137 2420 ft 139 kts 232°
2026-05-06 17:29 43.36264 77.06055 2287 ft 138 kts 234°
2026-05-06 17:30 43.35739 77.05006 2246 ft 117 kts 234°
2026-05-06 17:30 43.35365 77.04256 2243 ft 76 kts 235°
2026-05-06 17:30 43.35121 77.03760 2240 ft 52 kts 234°
2026-05-06 17:30 43.34920 77.03361 2234 ft 42 kts 237°
2026-05-06 17:31 43.34830 77.03153 2235 ft 21 kts 243°
2026-05-06 17:31 43.34788 77.02965 2235 ft 20 kts 259°
2026-05-06 17:31 43.34778 77.02763 2233 ft 21 kts 268°
2026-05-06 17:31 43.34774 77.02629 2232 ft 21 kts 264°
2026-05-06 17:32 43.34778 77.02365 2232 ft 20 kts 274°
2026-05-06 17:32 43.34787 77.02165 2228 ft 21 kts 273°
2026-05-06 17:32 43.34811 77.02016 2228 ft 9 kts 328°
2026-05-06 17:32 43.34872 77.02012 2226 ft 9 kts 349°
2026-05-06 17:33 43.34885 77.01957 2226 ft 5 kts 196°
2026-05-06 17:33 43.34861 77.01953 2227 ft 0 kts 183°